{"data":{"norad_id":67798,"intl_designator":"2026-032B","name":"STARLINK-36798","alt_names":[],"object_type":"PAYLOAD","status":"ACTIVE","operator":null,"country":"US","launch_date":"2026-02-15","launch_site_code":"AFWTR","launch_vehicle":null,"mission":null,"orbit_class":"UNKNOWN","rcs_meters":null,"size_class":null,"mass_kg":null,"dimensions":null,"purposes":["comms"],"wikipedia_slug":null,"has_3d_model":false,"image_url":null,"decayed_at":null,"tle_current":{"epoch":"2026-05-25T01:36:15.043392Z","epoch_age_seconds":63114,"freshness":"FRESH","line1":"1 67798U 26032B   26145.06684078  .00012894  00000+0  40100-3 0  9998","line2":"2 67798  97.2851 333.1286 0001377 107.0203 253.1191 15.33447175 16669","mean_motion":15.33447175,"eccentricity":0.0001377,"inclination_deg":97.2851,"raan_deg":333.1286,"arg_perigee_deg":107.0203,"mean_anomaly_deg":253.1191,"bstar":0.000401,"rev_number":1666,"period_min":93.906071462814,"perigee_km":464.59432934709,"apogee_km":466.47907708496,"semimajor_km":6843.673703216,"source":"CELESTRAK","updated_at":"2026-05-25T13:38:21.691949Z"}}}